Location: Ch�risy
(50.2331°N, 2.9131°E)
Time: 02:05:21
(UTC+00:00)

ARGOS - Pass Details

Date: 17 January 2021
Orbit: 821 x 834 km, 98.4° (Epoch: 28 February)

Event Time Altitude Azimuth Distance (km) Brightness Sun altitude
Rises 18:26:43 0° 156° (SSE) 3,342 6.2 -20.1°
Reaches altitude 10° 18:29:03 10° 154° (SSE) 2,414 5.4 -20.5°
Maximum altitude 18:34:22 71° 72° (ENE) 872 3.0 -21.3°
Drops below altitude 10° 18:39:44 10° 349° (N) 2,436 5.6 -22.2°
Sets 18:42:06 0° 347° (NNW) 3,375 6.4 -22.5°
